RH
74 72 71 76 76 82 77 74 72 68 64 56 55 55 53 53 51 50 44 35 24 16 12 9 8 18 30 43 58 76 89 87 82 86 81 82 84 78 70 64 58 59 65 77
70 71 77 77 74 77 76 80 71 65 64 56 54 55 53 53 53 53 48 40 28 20 14 11 8 10 20 31 43 61 71 87 82 86 86 78 77 74 66 58 52 57 63 83
77 72 75 79 72 73 78 76 69 72 62 62 61 61 56 56 55 55 51 45 34 25 17 13 9 8 11 20 31 43 55 72 83 83 85 79 72 68 60 56 56 57 71 92
88 80 87 70 67 69 72 75 71 69 65 63 65 62 57 55 55 55 54 50 43 31 23 16 12 9 8 11 20 29 39 50 72 79 78 76 71 65 62 59 54 57 64 86
89 94 75 65 70 77 78 76 70 67 67 69 69 68 59 57 56 55 58 55 49 38 28 22 15 12 8 8 10 17 25 35 44 67 74 71 68 69 67 64 60 61 61 60
87 92 93 72 64 65 70 77 67 73 72 70 69 73 68 60 59 56 60 58 55 47 35 27 21 15 12 8 7 9 15 22 29 36 59 66 64 64 67 65 67 67 59 74
82 90 82 71 68 68 85 83 72 76 74 71 74 72 67 62 62 59 58 63 58 54 42 32 26 20 15 12 9 7 8 13 18 23 30 51 60 61 60 63 65 65 66 65
79 86 89 73 71 78 82 84 80 82 79 74 77 73 69 64 65 61 58 64 62 57 50 38 30 24 20 15 12 9 8 8 10 15 19 26 42 54 56 55 58 61 62 60
75 64 69 81 85 83 81 83 89 88 82 79 78 77 72 67 67 62 59 62 66 61 56 45 35 28 24 21 16 12 9 8 8 9 11 16 21 33 47 51 53 54 58 62
73 57 70 84 88 87 88 91 85 85 83 85 84 80 75 70 71 67 62 62 66 66 60 51 41 33 27 24 21 17 12 9 9 9 9 10 13 18 27 42 49 53 54 57
66 62 69 76 86 93 87 87 97 92 90 91 88 87 77 76 73 68 66 66 68 68 67 57 47 39 31 27 23 20 17 12 10 11 11 10 10 11 15 24 37 48 52 56
68 78 77 87 92 95 97 98 98 97 97 95 91 92 88 80 76 71 70 74 76 73 71 61 50 44 37 32 27 23 20 16 13 12 13 12 12 11 11 12 16 27 44 52
79 89 93 96 97 97 97 98 98 98 97 94 95 94 94 89 79 77 77 83 80 76 73 64 52 49 41 35 31 26 22 18 15 15 15 15 14 13 13 13 13 13 23 32
98 97 97 97 98 98 98 98 98 97 95 95 96 95 94 93 88 88 91 90 85 80 74 67 56 53 43 37 34 29 24 20 17 17 18 17 17 16 16 15 14 14 14 17
98 98 98 98 98 98 98 98 96 95 94 92 92 93 94 94 95 95 94 90 84 80 72 65 59 52 46 41 35 29 24 21 19 19 20 20 20 19 19 18 18 17 16 15
98 99 98 97 94 96 96 89 86 82 81 83 89 92 93 95 96 97 95 92 86 81 74 67 59 54 49 43 34 29 25 22 21 21 21 22 23 23 22 22 21 20 18 18
98 97 98 98 98 93 88 86 82 76 76 77 84 88 92 94 94 95 95 92 86 79 72 66 60 58 51 40 33 30 26 23 21 22 23 24 25 26 26 25 25 24 22 22
88 91 93 94 91 85 79 78 77 77 79 75 80 86 90 93 94 94 92 87 80 74 71 66 63 56 44 36 33 30 26 23 22 23 25 27 28 29 30 30 30 30 29 28
88 87 84 84 82 82 78 72 76 79 79 80 83 85 90 94 95 95 90 84 80 76 70 65 59 48 38 35 32 28 26 25 25 25 27 30 32 33 35 35 35 35 34 33
78 83 85 77 72 71 67 70 72 78 77 82 87 87 92 95 95 91 85 83 80 73 66 61 50 40 36 32 30 30 29 27 28 29 31 34 37 39 40 42 42 41 40 38
77 75 75 73 68 68 72 71 69 71 76 81 82 88 91 93 92 88 85 81 73 68 63 50 41 35 31 32 33 31 31 33 34 34 37 41 43 45 46 47 48 48 47 44
68 71 65 63 64 65 70 68 67 69 78 82 84 90 93 93 91 88 82 75 71 63 49 41 33 33 34 34 34 33 35 37 39 41 44 47 49 50 51 52 52 53 52 50
61 60 61 58 61 67 71 71 71 73 78 84 87 91 93 91 87 82 76 69 57 48 37 34 39 36 35 36 36 36 38 40 43 46 48 51 53 54 55 56 57 56 56 56
61 59 61 62 64 67 69 71 73 77 82 87 89 91 89 85 82 73 61 51 45 38 32 30 33 35 36 37 39 43 46 48 50 52 53 53 54 55 56 57 57 58 58 60
70 66 67 69 71 74 77 79 82 89 90 91 91 89 85 74 62 53 45 42 37 31 35 41 41 44 47 49 50 48 46 45 43 42 43 43 43 44 45 45 46 47 46 46
88 86 85 86 87 89 90 92 95 98 96 92 84 70 61 53 46 42 35 30 32 35 42 47 48 44 40 38 37 37 38 40 43 47 52 55 58 59 61 62 63 63 62 60
98 99 98 98 98 98 99 99 99 89 73 62 56 52 48 43 35 29 30 35 43 47 44 40 38 37 38 40 43 46 49 52 55 58 61 64 67 69 71 71 71 70 69 68